{"data":{"norad_id":62903,"intl_designator":"2025-026B","name":"COSMOS 2582","alt_names":[],"object_type":"PAYLOAD","status":"ACTIVE","operator":null,"country":"CIS","launch_date":"2025-02-05","launch_site_code":"PLMSC","launch_vehicle":null,"mission":null,"orbit_class":"UNKNOWN","rcs_meters":null,"size_class":null,"mass_kg":null,"dimensions":null,"purposes":[],"wikipedia_slug":null,"has_3d_model":false,"image_url":null,"decayed_at":null,"tle_current":{"epoch":"2026-05-24T17:29:20.497344Z","epoch_age_seconds":98491,"freshness":"FRESH","line1":"1 62903U 25026B   26144.72870946  .00001004  00000+0  89714-4 0  9992","line2":"2 62903  81.9946  98.4322 0011255 127.5552 232.6692 14.94918120 70701","mean_motion":14.9491812,"eccentricity":0.0011255,"inclination_deg":81.9946,"raan_deg":98.4322,"arg_perigee_deg":127.5552,"mean_anomaly_deg":232.6692,"bstar":8.9714e-5,"rev_number":7070,"period_min":96.326345953984,"perigee_km":574.79257073981,"apogee_km":590.46125030239,"semimajor_km":6960.7639105211,"source":"CELESTRAK","updated_at":"2026-05-25T13:38:03.354965Z"}}}